Time[GMT],gps_lat[degrees_north](-3m),gps_lon[degrees_west](-3m),gps_2_lat[degrees_north](-3m),gps_2_lon[degrees_west](-3m)
2009-09-24 01:00,43.181365967,-70.427536011,43.18,-70.43
2009-09-24 02:00,43.181400299,-70.427581787,43.18,-70.43
2009-09-24 03:00,43.181365967,-70.427551270,43.18,-70.43
2009-09-24 04:00,43.181400299,-70.427551270,43.18,-70.43
2009-09-24 05:00,43.181350708,-70.427482605,43.18,-70.43
2009-09-24 06:00,43.181301117,-70.427452087,43.18,-70.43
2009-09-24 07:00,43.181251526,-70.427398682,43.18,-70.43
2009-09-24 08:00,43.181232452,-70.427368164,43.18,-70.43
2009-09-24 09:00,43.181198120,-70.427368164,43.18,-70.43
2009-09-24 10:00,43.181098938,-70.427452087,43.18,-70.43
2009-09-24 11:00,43.181068420,-70.427497864,43.18,-70.43
2009-09-24 12:00,43.181083679,-70.427551270,43.18,-70.43
2009-09-24 13:00,43.181133270,-70.427665710,43.18,-70.43
2009-09-24 14:00,43.181148529,-70.427597046,43.18,-70.43
2009-09-24 15:00,43.181198120,-70.427665710,43.18,-70.43
2009-09-24 16:00,43.181251526,-70.427696228,43.18,-70.43
2009-09-24 17:00,43.181282043,-70.427719116,43.18,-70.43
2009-09-24 18:00,43.181266785,-70.427764893,43.18,-70.43
2009-09-24 19:00,43.181251526,-70.427803040,43.18,-70.43
2009-09-24 20:00,43.181251526,-70.427734375,43.18,-70.43
2009-09-24 21:00,43.181282043,-70.427696228,43.18,-70.43
2009-09-24 22:00,43.181266785,-70.427650452,43.18,-70.43
2009-09-24 23:00,43.181301117,-70.427597046,,
2009-09-25 00:00,43.181251526,-70.427566528,43.18,-70.43
2009-09-25 01:00,43.181251526,-70.427581787,43.18,-70.43
2009-09-25 02:00,43.181266785,-70.427635193,43.18,-70.43
2009-09-25 03:00,43.181232452,-70.427581787,43.18,-70.43
2009-09-25 04:00,43.181232452,-70.427551270,43.18,-70.43
2009-09-25 05:00,43.181232452,-70.427581787,43.18,-70.43
2009-09-25 06:00,43.181167603,-70.427566528,43.18,-70.43
2009-09-25 07:00,43.181182861,-70.427581787,43.18,-70.43
2009-09-25 08:00,43.181167603,-70.427536011,43.18,-70.43
2009-09-25 09:00,43.181118011,-70.427497864,43.18,-70.43
2009-09-25 11:00,,,,
2009-09-25 12:00,,,,
2009-09-25 13:00,43.180850983,-70.427764893,43.18,-70.43
2009-09-25 14:00,43.180816650,-70.427619934,43.18,-70.43
2009-09-25 15:00,43.180831909,-70.427696228,43.18,-70.43
2009-09-25 16:00,43.180831909,-70.427734375,43.18,-70.43
2009-09-25 17:00,,,,
2009-09-25 18:00,43.180816650,-70.427764893,43.18,-70.43
2009-09-25 19:00,43.180934906,-70.427986145,43.18,-70.43
2009-09-25 20:00,43.180915833,-70.427947998,43.18,-70.43
2009-09-25 21:00,43.180850983,-70.427932739,43.18,-70.43
2009-09-25 22:00,43.180866241,-70.427848816,43.18,-70.43
2009-09-25 23:00,43.180767059,-70.427833557,43.18,-70.43
2009-09-26 00:00,43.180866241,-70.427886963,43.18,-70.43
2009-09-26 01:00,43.180934906,-70.427917480,43.18,-70.43
2009-09-26 02:00,43.180950165,-70.427963257,43.18,-70.43
2009-09-26 03:00,43.180934906,-70.427963257,43.18,-70.43
2009-09-26 04:00,43.180984497,-70.427947998,43.18,-70.43
2009-09-26 05:00,43.181068420,-70.427902222,43.18,-70.43
2009-09-26 06:00,43.180999756,-70.427833557,43.18,-70.43
2009-09-26 07:00,43.180984497,-70.427886963,43.18,-70.43
2009-09-26 08:00,43.180950165,-70.427833557,43.18,-70.43
2009-09-26 09:00,43.180900574,-70.427734375,43.18,-70.43
2009-09-26 10:00,43.180866241,-70.427734375,43.18,-70.43
2009-09-26 11:00,43.180850983,-70.427719116,43.18,-70.43
2009-09-26 12:00,43.180850983,-70.427780151,43.18,-70.43
2009-09-26 13:00,43.181118011,-70.427299500,43.18,-70.43
2009-09-26 14:00,43.180915833,-70.427818298,43.18,-70.43
2009-09-26 15:00,43.180965424,-70.427864075,43.18,-70.43
2009-09-26 16:00,43.181015015,-70.427886963,43.18,-70.43
2009-09-26 17:00,43.181034088,-70.427886963,43.18,-70.43
2009-09-26 18:00,43.181098938,-70.427833557,43.18,-70.43
2009-09-26 19:00,43.181148529,-70.427780151,43.18,-70.43
2009-09-26 20:00,43.181182861,-70.427749634,43.18,-70.43
2009-09-26 21:00,43.181182861,-70.427696228,43.18,-70.43
2009-09-26 22:00,43.181198120,-70.427680969,43.18,-70.43
2009-09-26 23:00,43.181217194,-70.427665710,43.18,-70.43
2009-09-27 00:00,43.181251526,-70.427581787,43.18,-70.43
2009-09-27 01:00,43.181365967,-70.427467346,43.18,-70.43
2009-09-27 02:00,43.181350708,-70.427368164,43.18,-70.43
2009-09-27 03:00,43.181365967,-70.427368164,43.18,-70.43
2009-09-27 04:00,43.181316376,-70.427368164,43.18,-70.43
2009-09-27 05:00,43.181365967,-70.427413940,43.18,-70.43
2009-09-27 06:00,43.181316376,-70.427413940,43.18,-70.43
2009-09-27 07:00,43.181365967,-70.427482605,43.18,-70.43
2009-09-27 08:00,43.181365967,-70.427497864,43.18,-70.43
2009-09-27 09:00,43.181365967,-70.427452087,43.18,-70.43
2009-09-27 10:00,43.181331635,-70.427513123,43.18,-70.43
2009-09-27 11:00,43.181282043,-70.427467346,43.18,-70.43
2009-09-27 12:00,43.181350708,-70.427497864,43.18,-70.43
2009-09-27 13:00,43.181365967,-70.427619934,43.18,-70.43
2009-09-27 14:00,43.181350708,-70.427566528,43.18,-70.43
2009-09-27 15:00,43.181400299,-70.427665710,43.18,-70.43
2009-09-27 16:00,43.181449890,-70.427696228,43.18,-70.43
2009-09-27 17:00,,,,
2009-09-27 18:00,43.181465149,-70.427665710,43.18,-70.43
2009-09-27 19:00,43.181484222,-70.427680969,43.18,-70.43
2009-09-27 20:00,43.181465149,-70.427719116,43.18,-70.43
2009-09-27 21:00,43.181415558,-70.427719116,43.18,-70.43
2009-09-27 22:00,43.181449890,-70.427764893,43.18,-70.43
2009-09-27 23:00,43.181400299,-70.427833557,43.18,-70.43
2009-09-28 00:00,43.181365967,-70.427833557,43.18,-70.43
2009-09-28 01:00,43.181385040,-70.427886963,43.18,-70.43
2009-09-28 02:00,43.181400299,-70.427734375,43.18,-70.43
2009-09-28 03:00,43.181400299,-70.427650452,43.18,-70.43
2009-09-28 05:00,43.181350708,-70.427551270,43.18,-70.43
2009-09-28 06:00,43.181385040,-70.427597046,43.18,-70.43
2009-09-28 07:00,43.181365967,-70.427635193,43.18,-70.43
2009-09-28 08:00,43.181331635,-70.427566528,43.18,-70.43
2009-09-28 09:00,43.181331635,-70.427436829,43.18,-70.43
2009-09-28 10:00,43.181266785,-70.427467346,43.18,-70.43
2009-09-28 11:00,43.181217194,-70.427452087,43.18,-70.43
2009-09-28 12:00,,,43.18,-70.43
2009-09-28 13:00,43.181217194,-70.427467346,43.18,-70.43
2009-09-28 14:00,43.181217194,-70.427467346,43.18,-70.43
2009-09-28 15:00,43.181266785,-70.427482605,43.18,-70.43
2009-09-28 16:00,43.181282043,-70.427497864,43.18,-70.43
2009-09-28 17:00,43.181350708,-70.427581787,43.18,-70.43
2009-09-28 18:00,43.181365967,-70.427619934,43.18,-70.43
2009-09-28 19:00,43.181415558,-70.427665710,43.18,-70.43
2009-09-28 20:00,43.181415558,-70.427680969,43.18,-70.43
2009-09-28 21:00,43.181415558,-70.427719116,43.18,-70.43
2009-09-28 22:00,43.181400299,-70.427680969,43.18,-70.43
2009-09-28 23:00,43.181385040,-70.427619934,43.18,-70.43
2009-09-29 00:00,43.181415558,-70.427581787,43.18,-70.43
2009-09-29 01:00,43.181415558,-70.427551270,43.18,-70.43
2009-09-29 02:00,43.181365967,-70.427513123,43.18,-70.43
2009-09-29 03:00,43.181282043,-70.427452087,43.18,-70.43
2009-09-29 04:00,43.181266785,-70.427413940,43.18,-70.43
2009-09-29 05:00,43.181301117,-70.427452087,43.18,-70.43
2009-09-29 06:00,43.181301117,-70.427497864,43.18,-70.43
2009-09-29 07:00,43.181365967,-70.427536011,43.18,-70.43
2009-09-29 08:00,43.181365967,-70.427566528,43.18,-70.43
2009-09-29 09:00,43.181385040,-70.427566528,43.18,-70.43
2009-09-29 10:00,43.181400299,-70.427551270,43.18,-70.43
2009-09-29 11:00,43.181949615,-70.428070068,43.18,-70.43
2009-09-29 12:00,43.181301117,-70.427482605,43.18,-70.43
2009-09-29 13:00,43.181316376,-70.427482605,43.18,-70.43
2009-09-29 14:00,43.181282043,-70.427482605,43.18,-70.43
2009-09-29 15:00,43.181282043,-70.427467346,43.18,-70.43
2009-09-29 16:00,43.181350708,-70.427551270,43.18,-70.43
2009-09-29 17:00,43.181365967,-70.427619934,43.18,-70.43
2009-09-29 18:00,43.181385040,-70.427597046,43.18,-70.43
2009-09-29 19:00,43.181400299,-70.427597046,43.18,-70.43
2009-09-29 20:00,43.181449890,-70.427650452,43.18,-70.43
2009-09-29 21:00,43.181400299,-70.427696228,43.18,-70.43
2009-09-29 22:00,43.181385040,-70.427551270,43.18,-70.43
2009-09-29 23:00,43.181365967,-70.427551270,43.18,-70.43
2009-09-30 00:00,43.181365967,-70.427497864,43.18,-70.43
2009-09-30 01:00,43.181350708,-70.427452087,43.18,-70.43
2009-09-30 02:00,43.181266785,-70.427413940,43.18,-70.43
2009-09-30 03:00,43.181266785,-70.427368164,43.18,-70.43
2009-09-30 04:00,43.181266785,-70.427398682,43.18,-70.43
2009-09-30 05:00,43.181301117,-70.427383423,43.18,-70.43
2009-09-30 06:00,43.181316376,-70.427413940,43.18,-70.43
2009-09-30 07:00,43.181266785,-70.427413940,43.18,-70.43
2009-09-30 08:00,43.181301117,-70.427452087,43.18,-70.43
2009-09-30 09:00,43.181301117,-70.427467346,43.18,-70.43
2009-09-30 10:00,43.181301117,-70.427482605,43.18,-70.43
2009-09-30 11:00,43.181449890,-70.428115845,43.18,-70.43
2009-09-30 12:00,43.181301117,-70.427497864,43.18,-70.43
2009-09-30 13:00,43.181282043,-70.427551270,43.18,-70.43
2009-09-30 14:00,43.181301117,-70.427513123,43.18,-70.43
2009-09-30 15:00,43.181282043,-70.427513123,43.18,-70.43
2009-09-30 16:00,43.181301117,-70.427513123,43.18,-70.43
2009-09-30 17:00,43.181316376,-70.427551270,43.18,-70.43
2009-09-30 18:00,43.181316376,-70.427513123,43.18,-70.43
2009-09-30 19:00,43.181331635,-70.427467346,43.18,-70.43
2009-09-30 20:00,43.181316376,-70.427436829,43.18,-70.43
2009-09-30 21:00,43.181301117,-70.427413940,43.18,-70.43
2009-09-30 22:00,43.181251526,-70.427383423,43.18,-70.43
2009-09-30 23:00,43.181266785,-70.427413940,43.18,-70.43
2009-10-01 00:00,43.181217194,-70.427330017,43.18,-70.43
2009-10-01 01:00,43.181182861,-70.427413940,43.18,-70.43
2009-10-01 02:00,43.181148529,-70.427368164,43.18,-70.43
2009-10-01 03:00,43.181118011,-70.427413940,43.18,-70.43
2009-10-01 04:00,43.181098938,-70.427383423,43.18,-70.43
2009-10-01 05:00,43.181118011,-70.427398682,43.18,-70.43
2009-10-01 06:00,43.181133270,-70.427383423,,
2009-10-01 07:00,43.181217194,-70.427398682,43.18,-70.43
2009-10-01 08:00,43.181251526,-70.427398682,43.18,-70.43
2009-10-01 09:00,43.181301117,-70.427467346,43.18,-70.43
2009-10-01 10:00,43.181301117,-70.427452087,43.18,-70.43
2009-10-01 11:00,43.181316376,-70.427413940,43.18,-70.43
2009-10-01 12:00,43.181282043,-70.427398682,43.18,-70.43
2009-10-01 13:00,43.181251526,-70.427413940,43.18,-70.43
2009-10-01 14:00,43.181198120,-70.427413940,,
2009-10-01 15:00,43.181198120,-70.427452087,43.18,-70.43
2009-10-01 16:00,43.181198120,-70.427452087,43.18,-70.43
2009-10-01 17:00,43.181217194,-70.427436829,43.18,-70.43
2009-10-01 18:00,43.181198120,-70.427452087,43.18,-70.43
2009-10-01 19:00,43.181266785,-70.427536011,43.18,-70.43
2009-10-01 20:00,43.181266785,-70.427566528,43.18,-70.43
2009-10-01 21:00,43.181282043,-70.427551270,43.18,-70.43
2009-10-01 22:00,43.181316376,-70.427536011,43.18,-70.43
2009-10-01 23:00,43.181350708,-70.427581787,43.18,-70.43
2009-10-02 00:00,43.181316376,-70.427513123,43.18,-70.43
2009-10-02 01:00,43.181282043,-70.427482605,43.18,-70.43
2009-10-02 02:00,43.181266785,-70.427467346,43.18,-70.43
2009-10-02 03:00,43.181251526,-70.427467346,43.18,-70.43
2009-10-02 04:00,43.181232452,-70.427436829,43.18,-70.43
2009-10-02 05:00,43.181148529,-70.427368164,43.17,-70.42
2009-10-02 06:00,43.181167603,-70.427383423,43.18,-70.43
2009-10-02 07:00,43.181148529,-70.427383423,43.18,-70.43
2009-10-02 08:00,43.181198120,-70.427452087,43.18,-70.43
2009-10-02 09:00,43.181217194,-70.427482605,43.18,-70.43
2009-10-02 10:00,43.181316376,-70.427551270,43.18,-70.43
2009-10-02 11:00,43.181316376,-70.427513123,43.18,-70.43
2009-10-02 12:00,43.181266785,-70.427482605,43.18,-70.43
2009-10-02 13:00,43.181251526,-70.427467346,43.18,-70.43
2009-10-02 14:00,43.181217194,-70.427467346,43.18,-70.43
2009-10-02 15:00,43.181198120,-70.427436829,43.18,-70.43
2009-10-02 16:00,43.181198120,-70.427452087,43.18,-70.43
2009-10-02 17:00,43.181182861,-70.427398682,43.18,-70.43
2009-10-02 18:00,43.181118011,-70.427368164,43.18,-70.43
2009-10-02 19:00,43.181167603,-70.427383423,43.18,-70.43
2009-10-02 20:00,43.181217194,-70.427452087,43.18,-70.43
2009-10-02 21:00,43.181232452,-70.427497864,43.18,-70.43
2009-10-02 22:00,43.181266785,-70.427551270,43.18,-70.43
2009-10-02 23:00,43.181266785,-70.427635193,43.18,-70.43
2009-10-03 00:00,43.181385040,-70.427749634,43.18,-70.43
2009-10-03 01:00,43.181385040,-70.427734375,43.18,-70.43
2009-10-03 02:00,43.181331635,-70.427719116,43.18,-70.43
2009-10-03 03:00,43.181316376,-70.427680969,43.18,-70.43
2009-10-03 04:00,43.181316376,-70.427581787,43.18,-70.43
2009-10-03 05:00,43.181301117,-70.427597046,43.18,-70.43
2009-10-03 06:00,43.181350708,-70.427635193,43.18,-70.43
2009-10-03 07:00,,,,
2009-10-03 08:00,43.181350708,-70.427665710,43.18,-70.43
2009-10-03 09:00,43.181350708,-70.427749634,43.18,-70.43
2009-10-03 10:00,,,,
2009-10-03 11:00,43.181434631,-70.427780151,43.18,-70.43
2009-10-03 12:00,43.181434631,-70.427848816,43.18,-70.43
2009-10-03 13:00,43.181415558,-70.427902222,43.18,-70.43
2009-10-03 14:00,43.181365967,-70.427818298,43.18,-70.43
2009-10-03 15:00,43.181331635,-70.427818298,43.18,-70.43
2009-10-03 16:00,43.181385040,-70.427932739,43.18,-70.43
2009-10-03 17:00,43.181434631,-70.428001404,43.18,-70.43
2009-10-03 18:00,43.181415558,-70.427986145,43.18,-70.43
2009-10-03 19:00,43.181415558,-70.427886963,43.18,-70.43
2009-10-03 20:00,43.181365967,-70.427818298,43.18,-70.43
2009-10-03 21:00,43.181385040,-70.427803040,43.18,-70.43
2009-10-03 22:00,43.181400299,-70.427803040,43.18,-70.43
2009-10-03 23:00,43.181465149,-70.427848816,43.18,-70.43
2009-10-04 00:00,43.181415558,-70.427848816,43.18,-70.43
2009-10-04 01:00,43.181415558,-70.427848816,43.18,-70.43
2009-10-04 02:00,43.181449890,-70.427749634,43.18,-70.43
2009-10-04 03:00,43.181350708,-70.427566528,43.18,-70.43
2009-10-04 04:00,43.181251526,-70.427513123,43.18,-70.43
2009-10-04 05:00,43.181232452,-70.427513123,43.18,-70.43
2009-10-04 06:00,43.181118011,-70.427536011,43.18,-70.43
2009-10-04 07:00,43.181083679,-70.427551270,43.18,-70.43
2009-10-04 08:00,43.181049347,-70.427619934,43.18,-70.43
2009-10-04 09:00,,,,
2009-10-04 10:00,43.181098938,-70.427734375,43.18,-70.43
2009-10-04 11:00,43.181182861,-70.427780151,43.18,-70.43
2009-10-04 13:00,43.181331635,-70.427764893,43.18,-70.43
2009-10-04 14:00,43.181316376,-70.427696228,43.18,-70.43
2009-10-04 15:00,43.181251526,-70.427635193,43.18,-70.43
2009-10-04 16:00,43.181251526,-70.427597046,43.18,-70.43
2009-10-04 17:00,43.181217194,-70.427566528,,
2009-10-04 18:00,43.181167603,-70.427513123,43.18,-70.43
2009-10-04 19:00,43.181133270,-70.427513123,43.18,-70.43
2009-10-04 20:00,43.181182861,-70.427513123,43.18,-70.43
2009-10-04 21:00,43.181182861,-70.427551270,43.18,-70.43
2009-10-04 22:00,43.181182861,-70.427551270,43.18,-70.43
2009-10-04 23:00,43.181182861,-70.427619934,43.18,-70.43
2009-10-05 00:00,43.181217194,-70.427619934,43.18,-70.43
2009-10-05 01:00,43.181232452,-70.427650452,43.18,-70.43
2009-10-05 02:00,43.181282043,-70.427619934,43.18,-70.43
2009-10-05 03:00,43.181232452,-70.427650452,43.18,-70.43
2009-10-05 04:00,43.181182861,-70.427619934,43.18,-70.43
2009-10-05 05:00,43.181182861,-70.427597046,43.18,-70.43
2009-10-05 06:00,43.181167603,-70.427597046,43.18,-70.43
2009-10-05 07:00,,,,
2009-10-05 08:00,43.181167603,-70.427581787,,
2009-10-05 09:00,43.181148529,-70.427551270,43.18,-70.43
2009-10-05 10:00,43.181217194,-70.427597046,43.18,-70.43
2009-10-05 11:00,43.181232452,-70.427581787,,
2009-10-05 12:00,43.181251526,-70.427581787,43.18,-70.43
2009-10-05 13:00,43.181301117,-70.427619934,43.18,-70.43
2009-10-05 14:00,43.181282043,-70.427566528,,
2009-10-05 15:00,43.181232452,-70.427551270,,
2009-10-05 16:00,43.181182861,-70.427536011,,
2009-10-05 17:00,43.181083679,-70.427513123,43.18,-70.43
2009-10-05 18:00,43.181034088,-70.427467346,43.18,-70.43
2009-10-05 19:00,43.180984497,-70.427436829,43.18,-70.43
2009-10-05 20:00,43.181034088,-70.427467346,43.18,-70.43
2009-10-05 21:00,43.181034088,-70.427482605,43.18,-70.43
2009-10-05 22:00,43.181049347,-70.427467346,,
2009-10-05 23:00,43.181083679,-70.427513123,,
2009-10-06 00:00,43.181098938,-70.427497864,43.18,-70.43
2009-10-06 01:00,43.181251526,-70.427551270,43.18,-70.43
2009-10-06 02:00,43.181251526,-70.427581787,,
2009-10-06 03:00,43.181232452,-70.427497864,43.18,-70.43
2009-10-06 04:00,43.181182861,-70.427398682,43.18,-70.43
2009-10-06 05:00,43.181198120,-70.427330017,,
2009-10-06 06:00,43.181098938,-70.427352905,43.18,-70.43
2009-10-06 07:00,43.181098938,-70.427314758,,
2009-10-06 08:00,43.181098938,-70.427284241,43.18,-70.43
2009-10-06 09:00,43.181083679,-70.427299500,43.18,-70.43
2009-10-06 10:00,43.181068420,-70.427314758,43.18,-70.43
2009-10-06 11:00,43.181068420,-70.427330017,43.18,-70.43
2009-10-06 12:00,43.181083679,-70.427383423,43.18,-70.43
2009-10-06 13:00,43.181083679,-70.427368164,43.18,-70.43
2009-10-06 14:00,43.181098938,-70.427482605,43.18,-70.43
2009-10-06 15:00,43.181098938,-70.427619934,43.18,-70.43
2009-10-06 16:00,43.181118011,-70.427497864,43.18,-70.43
2009-10-06 17:00,43.181083679,-70.427467346,43.18,-70.43
2009-10-06 18:00,43.181068420,-70.427452087,,
2009-10-06 19:00,43.181034088,-70.427467346,43.18,-70.43
2009-10-06 20:00,43.181049347,-70.427452087,43.18,-70.43
2009-10-06 21:00,43.181068420,-70.427497864,43.18,-70.43
2009-10-06 22:00,43.181083679,-70.427513123,43.18,-70.43
2009-10-06 23:00,43.181118011,-70.427536011,,
2009-10-07 00:00,43.181167603,-70.427551270,43.18,-70.43
2009-10-07 01:00,43.181232452,-70.427597046,43.18,-70.43
2009-10-07 02:00,43.181350708,-70.427619934,,
2009-10-07 03:00,43.181331635,-70.427566528,43.18,-70.43
2009-10-07 04:00,43.181266785,-70.427551270,43.18,-70.43
2009-10-07 05:00,43.181266785,-70.427497864,43.18,-70.43
2009-10-07 07:00,43.181167603,-70.427413940,43.18,-70.43
2009-10-07 08:00,43.181167603,-70.427383423,,
2009-10-07 09:00,43.181148529,-70.427368164,43.18,-70.43
2009-10-07 10:00,43.181232452,-70.427383423,43.18,-70.43
2009-10-07 11:00,43.181385040,-70.427566528,43.18,-70.43
2009-10-07 12:00,43.181365967,-70.427680969,43.18,-70.43
2009-10-07 13:00,43.181449890,-70.427864075,43.18,-70.43
2009-10-07 14:00,43.181465149,-70.427848816,43.18,-70.43
2009-10-07 15:00,43.181434631,-70.427780151,43.18,-70.43
2009-10-07 16:00,43.181385040,-70.427619934,43.18,-70.43
2009-10-07 17:00,43.181331635,-70.427551270,43.18,-70.43
2009-10-07 18:00,43.181232452,-70.427398682,,
2009-10-07 19:00,43.181083679,-70.427169800,43.18,-70.43
2009-10-07 20:00,43.180984497,-70.426986694,43.18,-70.43
2009-10-07 21:00,43.180816650,-70.427032471,43.18,-70.43
2009-10-07 22:00,43.180881500,-70.427032471,,
2009-10-07 23:00,43.180900574,-70.427062988,,
2009-10-08 00:00,43.180850983,-70.427101135,,
2009-10-08 01:00,43.180900574,-70.427169800,,
2009-10-08 02:00,43.180965424,-70.427215576,43.18,-70.43
2009-10-08 03:00,43.180984497,-70.427398682,43.18,-70.43
2009-10-08 04:00,43.181083679,-70.427383423,43.18,-70.43
2009-10-08 05:00,43.181098938,-70.427146912,,
2009-10-08 06:00,43.180900574,-70.427032471,43.18,-70.43
2009-10-08 07:00,43.180881500,-70.427047729,,
2009-10-08 08:00,43.180866241,-70.427032471,,
2009-10-08 09:00,43.180831909,-70.427085876,43.18,-70.43
2009-10-08 10:00,43.180816650,-70.427101135,43.18,-70.43
2009-10-08 11:00,43.180801392,-70.427101135,43.18,-70.43
2009-10-08 12:00,43.180816650,-70.427116394,43.17,-70.42
2009-10-08 13:00,43.180767059,-70.427185059,43.18,-70.43
2009-10-08 14:00,43.180816650,-70.427330017,43.18,-70.43
2009-10-08 15:00,43.180831909,-70.427368164,43.18,-70.43
2009-10-08 16:00,43.180816650,-70.427368164,43.18,-70.43
2009-10-08 17:00,43.180801392,-70.427314758,43.18,-70.43
2009-10-08 18:00,43.180816650,-70.427230835,43.18,-70.43
2009-10-08 19:00,43.180900574,-70.427284241,43.18,-70.43
2009-10-08 20:00,43.180850983,-70.427215576,43.18,-70.43
2009-10-08 21:00,43.180831909,-70.427185059,,
2009-10-08 22:00,43.180816650,-70.427185059,,
2009-10-08 23:00,43.180831909,-70.427169800,43.18,-70.43
2009-10-09 00:00,43.180831909,-70.427185059,,
2009-10-09 01:00,43.180881500,-70.427284241,,
2009-10-09 02:00,43.180866241,-70.427299500,43.18,-70.43
2009-10-09 03:00,43.180934906,-70.427330017,43.18,-70.43
2009-10-09 04:00,43.180934906,-70.427253723,43.18,-70.43
2009-10-09 05:00,43.180950165,-70.427299500,43.18,-70.43
2009-10-09 06:00,43.180934906,-70.427299500,,
2009-10-09 07:00,43.180934906,-70.427284241,,
2009-10-09 08:00,43.180915833,-70.427253723,43.18,-70.43
2009-10-09 09:00,43.180915833,-70.427253723,43.18,-70.43
2009-10-09 10:00,43.180915833,-70.427215576,43.18,-70.43
2009-10-09 11:00,43.180915833,-70.427200317,43.18,-70.43
2009-10-09 12:00,43.180915833,-70.427200317,43.18,-70.43
2009-10-09 13:00,43.180934906,-70.427253723,43.18,-70.43
2009-10-09 14:00,43.180984497,-70.427299500,,
2009-10-09 15:00,43.181049347,-70.427352905,,
2009-10-09 16:00,43.181068420,-70.427314758,43.18,-70.43
2009-10-09 17:00,43.181049347,-70.427368164,43.18,-70.43
2009-10-09 18:00,43.181068420,-70.427352905,,
2009-10-09 19:00,43.180999756,-70.427284241,,
2009-10-09 20:00,43.180950165,-70.427253723,43.18,-70.43
2009-10-09 21:00,43.181034088,-70.427215576,43.18,-70.43
2009-10-09 22:00,43.181049347,-70.427215576,43.18,-70.43
2009-10-09 23:00,,,,
2009-10-10 00:00,43.181015015,-70.427169800,43.18,-70.43
2009-10-10 01:00,43.181068420,-70.427268982,43.18,-70.43
2009-10-10 02:00,43.181118011,-70.427314758,43.18,-70.43
2009-10-10 03:00,43.181083679,-70.427383423,43.18,-70.43
2009-10-10 04:00,43.181083679,-70.427352905,43.18,-70.43
2009-10-10 05:00,43.181068420,-70.427352905,43.18,-70.43
2009-10-10 06:00,43.181068420,-70.427368164,43.18,-70.43
2009-10-10 07:00,43.181068420,-70.427314758,,
2009-10-10 08:00,43.181034088,-70.427299500,43.18,-70.43
2009-10-10 09:00,43.180965424,-70.427284241,43.18,-70.43
2009-10-10 10:00,43.180881500,-70.427299500,43.18,-70.43
2009-10-10 11:00,43.180881500,-70.427284241,43.18,-70.43
2009-10-10 12:00,43.180881500,-70.427284241,43.18,-70.43
2009-10-10 13:00,43.180866241,-70.427268982,43.18,-70.43
2009-10-10 14:00,43.180881500,-70.427314758,43.18,-70.43
2009-10-10 15:00,43.180965424,-70.427398682,43.18,-70.43
2009-10-10 16:00,43.180915833,-70.427299500,43.18,-70.43
2009-10-10 17:00,43.181015015,-70.427299500,43.18,-70.43
2009-10-10 18:00,43.180934906,-70.427146912,43.18,-70.43
2009-10-10 19:00,43.180965424,-70.427085876,43.18,-70.43
2009-10-10 20:00,43.180850983,-70.427085876,43.18,-70.43
2009-10-10 21:00,43.180816650,-70.427169800,43.18,-70.43
2009-10-10 22:00,43.180751801,-70.427169800,43.18,-70.43
2009-10-10 23:00,,,,
2009-10-11 00:00,43.180698395,-70.427253723,43.18,-70.43
2009-10-11 01:00,43.180717468,-70.427314758,43.18,-70.43
2009-10-11 02:00,43.180751801,-70.427330017,43.18,-70.43
2009-10-11 03:00,43.180782318,-70.427497864,43.18,-70.43
2009-10-11 04:00,43.180866241,-70.427513123,43.18,-70.43
2009-10-11 05:00,43.181034088,-70.427383423,43.18,-70.43
2009-10-11 06:00,43.181083679,-70.427352905,43.17,-70.42
2009-10-11 07:00,43.181068420,-70.427230835,43.18,-70.43
2009-10-11 08:00,43.181049347,-70.427185059,43.18,-70.43
2009-10-11 09:00,43.180984497,-70.427062988,43.18,-70.43
2009-10-11 10:00,43.181034088,-70.427085876,43.18,-70.43
2009-10-11 11:00,43.180934906,-70.427101135,43.18,-70.43
2009-10-11 12:00,43.180915833,-70.427062988,43.18,-70.43
2009-10-11 13:00,43.180934906,-70.427062988,43.18,-70.43
2009-10-11 14:00,43.180915833,-70.427085876,43.18,-70.43
2009-10-11 15:00,43.180950165,-70.427116394,43.18,-70.43
2009-10-11 16:00,43.180934906,-70.427146912,43.18,-70.43
2009-10-11 17:00,43.180965424,-70.427215576,,
2009-10-11 18:00,43.180984497,-70.427185059,43.18,-70.43
2009-10-11 19:00,43.180950165,-70.427185059,,
2009-10-11 20:00,43.181015015,-70.427200317,43.18,-70.43
2009-10-11 21:00,43.180965424,-70.427200317,43.18,-70.43